FW3057 Weather Reports


Display with metric or nautical units.
time (UTC)temp
F
wind
direction
speed
MPH
gust
MPH
rain 1hr
in
rain 24hr
in
rain mn
in
humidity
%
barometer
mb
20260906063309 60 167 3.0 6.0 0.00 0.00 0.00 83 1020.6
20260906061308 60 178 5.0 8.0 0.00 0.00 0.00 84 1020.9
20260906060308 60 212 4.0 9.0 0.00 0.00 0.00 85 1020.9
20260906055308 59 229 4.0 9.0 0.00 0.00 0.00 86 1021.0
20260906054308 59 137 5.0 9.0 0.00 0.00 0.00 87 1020.9
20260906053308 59 214 3.0 7.0 0.00 0.00 0.00 87 1021.0
20260906051308 59 240 3.0 6.0 0.00 0.00 0.00 88 1021.0
20260906050308 59 110 3.0 5.0 0.00 0.00 0.00 88 1020.7
20260906043312 59 161 1.0 3.0 0.00 0.00 0.00 88 1021.1
20260906042311 59 89 2.0 5.0 0.00 0.00 0.00 88 1021.0
20260906041311 59 95 3.0 5.0 0.00 0.00 0.00 89 1021.4
20260906040311 59 113 4.0 7.0 0.00 0.00 0.00 89 1021.6
20260906035311 59 161 1.0 2.0 0.00 0.00 0.00 89 1021.9
20260906034311 59 190 1.0 4.0 0.00 0.00 0.00 89 1022.1
20260906032311 59 145 1.0 4.0 0.00 0.00 0.00 89 1021.9
20260906031311 59 140 1.0 3.0 0.00 0.00 0.00 88 1022.2
20260906030311 59 178 1.0 3.0 0.00 0.00 0.00 88 1022.2
20260906024311 59 56 1.0 3.0 0.00 0.00 0.00 89 1022.2
20260906023311 60 145 2.0 3.0 0.00 0.00 0.00 89 1022.7
20260906022311 60 138 2.0 3.0 0.00 0.00 0.00 89 1022.8
20260906021311 60 169 2.0 4.0 0.00 0.00 0.00 89 1023.1
20260906015311 60 145 1.0 3.0 0.00 0.00 0.00 89 1023.1
20260906014311 60 156 2.0 3.0 0.00 0.00 0.00 89 1023.2
20260906013311 60 193 3.0 5.0 0.00 0.00 0.00 90 1023.1
20260906012311 60 175 4.0 6.0 0.00 0.00 0.00 90 1023.2
20260906011311 60 170 2.0 3.0 0.00 0.00 0.00 90 1023.3
20260906010311 60 145 3.0 4.0 0.00 0.00 0.00 89 1023.4
20260906005311 60 190 2.0 3.0 0.00 0.00 0.00 89 1023.3
20260906002311 61 124 1.0 2.0 0.00 0.00 0.00 89 1023.8
20260906001311 61 152 1.0 2.0 0.00 0.00 0.00 89 1023.9
20260906000311 61 165 1.0 2.0 0.00 0.00 0.00 88 1024.0
20260905235311 61 127 2.0 4.0 0.00 0.00 0.00 88 1024.2
20260905234311 61 117 2.0 3.0 0.00 0.00 0.00 88 1024.2
20260905233311 61 163 2.0 4.0 0.00 0.00 0.00 87 1024.2
20260905232311 62 152 2.0 4.0 0.00 0.00 0.00 87 1024.3
20260905231311 62 115 2.0 4.0 0.00 0.00 0.00 86 1024.2
20260905225310 62 105 2.0 4.0 0.00 0.00 0.00 85 1024.4
20260905224311 62 105 3.0 4.0 0.00 0.00 0.00 85 1024.6
20260905223311 63 89 1.0 3.0 0.00 0.00 0.00 85 1024.6
20260905222310 63 148 2.0 3.0 0.00 0.00 0.00 85 1024.7
20260905221310 63 127 1.0 4.0 0.00 0.00 0.00 84 1024.8
20260905220311 63 112 5.0 9.0 0.00 0.00 0.00 84 1024.6
20260905215310 63 96 2.0 5.0 0.00 0.00 0.00 84 1024.7
20260905213311 63 156 2.0 6.0 0.00 0.00 0.00 83 1025.1
20260905212310 63 117 4.0 7.0 0.00 0.00 0.00 83 1025.1
20260905211310 63 102 3.0 8.0 0.00 0.00 0.00 83 1025.1
20260905210310 63 107 4.0 8.0 0.00 0.00 0.00 83 1025.2
20260905205310 63 113 4.0 7.0 0.00 0.00 0.00 83 1025.1
20260905203310 64 127 4.0 8.0 0.00 0.00 0.00 82 1024.8
20260905202310 64 179 4.0 9.0 0.00 0.00 0.00 81 1024.8
20260905200310 64 137 4.0 8.0 0.00 0.00 0.00 80 1024.7
20260905195310 64 86 4.0 8.0 0.00 0.00 0.00 80 1024.7
20260905194310 64 96 6.0 10.0 0.00 0.00 0.00 80 1024.8
20260905193310 64 137 4.0 9.0 0.00 0.00 0.00 80 1024.9
20260905192310 64 84 5.0 10.0 0.00 0.00 0.00 80 1024.8
20260905191310 64 68 6.0 10.0 0.00 0.00 0.00 79 1024.8
20260905190310 64 77 6.0 11.0 0.00 0.00 0.00 79 1024.8
20260905185310 64 86 5.0 11.0 0.00 0.00 0.00 79 1024.8
20260905183310 65 49 5.0 10.0 0.00 0.00 0.00 79 1024.6
20260905182310 65 98 7.0 10.0 0.00 0.00 0.00 78 1024.7
20260905180310 65 216 6.0 11.0 0.00 0.00 0.00 77 1024.8
20260905175310 66 63 8.0 10.0 0.00 0.00 0.00 77 1024.8
20260905174310 66 105 5.0 11.0 0.00 0.00 0.00 76 1025.0
20260905173310 66 89 8.0 12.0 0.00 0.00 0.00 76 1025.0
20260905172310 67 78 7.0 10.0 0.00 0.00 0.00 76 1024.8
20260905171310 67 52 7.0 11.0 0.00 0.00 0.00 74 1024.9
20260905170310 67 122 5.0 11.0 0.00 0.00 0.00 74 1025.0
20260905165310 67 82 5.0 10.0 0.00 0.00 0.00 73 1024.9
20260905164310 68 75 5.0 13.0 0.00 0.00 0.00 73 1024.9
20260905163310 68 108 6.0 9.0 0.00 0.00 0.00 73 1024.9
20260905162310 68 89 7.0 14.0 0.00 0.00 0.00 72 1025.1
20260905161310 68 68 5.0 11.0 0.00 0.00 0.00 72 1025.0
20260905160310 62 37 2.0 5.0 0.00 0.00 0.00 93 1025.7
20260905155310 68 117 6.0 11.0 0.00 0.00 0.00 71 1025.1
20260905154310 68 60 6.0 12.0 0.00 0.00 0.00 71 1025.2
20260905153310 69 51 7.0 9.0 0.00 0.00 0.00 70 1025.3
20260905152310 69 113 7.0 13.0 0.00 0.00 0.00 69 1025.1
20260905151310 69 65 4.0 11.0 0.00 0.00 0.00 69 1025.2
20260905150311 69 108 5.0 9.0 0.00 0.00 0.00 69 1025.2
20260905144310 69 63 8.0 11.0 0.00 0.00 0.00 69 1025.4
20260905143310 69 59 5.0 13.0 0.00 0.00 0.00 70 1025.5
20260905142310 69 100 5.0 12.0 0.00 0.00 0.00 69 1025.5
20260905141309 69 58 7.0 11.0 0.00 0.00 0.00 69 1025.5
20260905140309 69 54 4.0 9.0 0.00 0.00 0.00 69 1025.7
20260905135309 69 27 4.0 9.0 0.00 0.00 0.00 70 1025.9
20260905132310 69 135 3.0 10.0 0.00 0.00 0.00 69 1026.0
20260905124309 69 37 5.0 9.0 0.00 0.00 0.00 70 1026.2
20260905123309 68 68 4.0 11.0 0.00 0.00 0.00 70 1026.2
20260905122309 68 96 5.0 11.0 0.00 0.00 0.00 71 1026.2
20260905121309 69 103 7.0 10.0 0.00 0.00 0.00 70 1026.2
20260905120309 68 35 5.0 9.0 0.00 0.00 0.00 71 1026.3
20260905115309 68 112 4.0 9.0 0.00 0.00 0.00 71 1026.4
20260905114309 68 76 5.0 8.0 0.00 0.00 0.00 72 1026.3
20260905113309 68 51 5.0 9.0 0.00 0.00 0.00 73 1026.2
20260905112309 68 39 6.0 9.0 0.00 0.00 0.00 71 1026.3
20260905111309 68 81 5.0 8.0 0.00 0.00 0.00 72 1026.3
20260905110309 68 348 3.0 6.0 0.00 0.00 0.00 73 1026.3
20260905105309 68 123 6.0 8.0 0.00 0.00 0.00 73 1026.4
20260905104309 68 71 5.0 7.0 0.00 0.00 0.00 73 1026.4
20260905103309 68 234 3.0 8.0 0.00 0.00 0.00 74 1026.4
20260905102309 68 108 3.0 10.0 0.00 0.00 0.00 76 1026.4
20260905101309 67 84 3.0 7.0 0.00 0.00 0.00 76 1026.4
20260905100309 67 81 4.0 10.0 0.00 0.00 0.00 78 1026.4
20260905095309 67 39 5.0 7.0 0.00 0.00 0.00 78 1026.5
20260905093309 67 105 3.0 8.0 0.00 0.00 0.00 78 1026.4
20260905091309 67 35 3.0 7.0 0.00 0.00 0.00 79 1026.1
20260905090309 66 262 2.0 7.0 0.00 0.00 0.00 80 1026.0
20260905085309 66 76 2.0 7.0 0.00 0.00 0.00 81 1026.1
20260905082309 64 269 2.0 6.0 0.00 0.00 0.00 90 1026.0
20260905081309 63 89 3.0 5.0 0.00 0.00 0.00 92 1025.9
20260905080309 62 288 3.0 5.0 0.00 0.00 0.00 94 1025.7
20260905075309 62 328 1.0 5.0 0.00 0.00 0.00 95 1025.6
20260905073309 60 279 3.0 4.0 0.00 0.00 0.00 96 1025.4
20260905072310 60 276 2.0 5.0 0.00 0.00 0.00 96 1025.4
20260905071309 59 259 4.0 6.0 0.00 0.00 0.00 96 1025.4
20260905070309 58 279 3.0 5.0 0.00 0.00 0.00 96 1025.3
20260905065309 58 269 2.0 4.0 0.00 0.00 0.00 96 1025.2
20260905064309 58 220 2.0 5.0 0.00 0.00 0.00 96 1025.2